Time,TemperatureF,DewpointF,PressureIn,WindDirection,WindDirectionDegrees,WindSpeedMPH,WindSpeedGustMPH,Humidity,HourlyPrecipIn,Conditions,Clouds,dailyrainin,SoftwareType,DateUTC
2013-06-07 00:04:00,67.4,64.0,29.92,NE,42,1.0,1.0,89,0.00,,,0.00,WeatherCatV1.15B25,2013-06-07 04:04:00,
2013-06-07 00:09:00,67.4,64.0,29.92,West,278,0.0,0.0,89,0.00,,,0.00,WeatherCatV1.15B25,2013-06-07 04:09:00,
2013-06-07 00:14:00,67.4,64.0,29.92,North,9,0.0,2.0,89,0.00,,,0.00,WeatherCatV1.15B25,2013-06-07 04:14:00,
2013-06-07 00:19:00,67.4,64.0,29.92,WNW,288,2.0,2.0,89,0.00,,,0.00,WeatherCatV1.15B25,2013-06-07 04:19:00,
2013-06-07 00:24:00,67.3,63.9,29.91,North,355,0.0,1.0,89,0.00,,,0.00,WeatherCatV1.15B25,2013-06-07 04:24:00,
2013-06-07 00:29:00,67.3,63.9,29.91,SSW,213,0.0,2.0,89,0.00,,,0.00,WeatherCatV1.15B25,2013-06-07 04:29:00,
2013-06-07 00:34:00,67.2,63.8,29.91,NW,305,0.0,1.0,89,0.00,,,0.00,WeatherCatV1.15B25,2013-06-07 04:34:00,
2013-06-07 00:39:00,67.2,63.8,29.91,West,273,0.0,1.0,89,0.00,,,0.00,WeatherCatV1.15B25,2013-06-07 04:39:00,
2013-06-07 00:44:00,67.1,63.7,29.91,West,277,0.0,1.0,89,0.00,,,0.00,WeatherCatV1.15B25,2013-06-07 04:44:00,
2013-06-07 00:49:00,67.1,63.7,29.91,NE,46,0.0,0.0,89,0.00,,,0.00,WeatherCatV1.15B25,2013-06-07 04:49:00,
2013-06-07 00:54:00,67.1,63.7,29.91,WNW,301,1.0,2.0,89,0.00,,,0.00,WeatherCatV1.15B25,2013-06-07 04:54:00,
2013-06-07 00:59:00,67.0,63.6,29.91,WNW,283,1.0,2.0,89,0.00,,,0.00,WeatherCatV1.15B25,2013-06-07 04:59:00,
2013-06-07 01:04:00,66.9,63.5,29.90,WSW,252,0.0,1.0,89,0.00,,,0.00,WeatherCatV1.15B25,2013-06-07 05:04:00,
2013-06-07 01:09:00,66.9,63.5,29.90,West,266,0.0,0.0,89,0.00,,,0.00,WeatherCatV1.15B25,2013-06-07 05:09:00,
2013-06-07 01:14:00,66.8,63.4,29.90,West,266,0.0,0.0,89,0.00,,,0.00,WeatherCatV1.15B25,2013-06-07 05:14:00,
2013-06-07 01:19:00,66.8,63.4,29.90,WNW,288,0.0,0.0,89,0.00,,,0.00,WeatherCatV1.15B25,2013-06-07 05:19:00,
2013-06-07 01:24:00,66.7,63.3,29.90,WNW,288,0.0,0.0,89,0.00,,,0.00,WeatherCatV1.15B25,2013-06-07 05:24:00,
2013-06-07 01:29:00,66.7,63.3,29.89,West,278,0.0,1.0,89,0.00,,,0.00,WeatherCatV1.15B25,2013-06-07 05:29:00,
2013-06-07 01:34:00,66.6,63.2,29.89,West,266,1.0,2.0,89,0.00,,,0.00,WeatherCatV1.15B25,2013-06-07 05:34:00,
2013-06-07 01:39:00,66.6,63.2,29.89,WSW,249,0.0,0.0,89,0.00,,,0.00,WeatherCatV1.15B25,2013-06-07 05:39:00,
2013-06-07 01:44:00,66.6,63.2,29.89,NNE,13,0.0,2.0,89,0.00,,,0.00,WeatherCatV1.15B25,2013-06-07 05:44:00,
2013-06-07 01:49:00,66.5,63.2,29.89,West,271,0.0,0.0,89,0.00,,,0.00,WeatherCatV1.15B25,2013-06-07 05:49:00,
2013-06-07 01:54:00,66.5,63.2,29.89,West,280,1.0,3.0,89,0.00,,,0.00,WeatherCatV1.15B25,2013-06-07 05:54:00,
2013-06-07 01:59:00,66.5,63.2,29.88,West,276,0.0,2.0,89,0.00,,,0.00,WeatherCatV1.15B25,2013-06-07 05:59:00,
2013-06-07 02:04:00,66.5,63.2,29.88,West,273,0.0,1.0,89,0.00,,,0.00,WeatherCatV1.15B25,2013-06-07 06:04:00,
2013-06-07 02:09:00,66.6,63.2,29.88,West,273,0.0,1.0,89,0.00,,,0.00,WeatherCatV1.15B25,2013-06-07 06:09:00,
2013-06-07 02:14:00,66.6,63.2,29.88,West,273,0.0,0.0,89,0.00,,,0.00,WeatherCatV1.15B25,2013-06-07 06:14:00,
2013-06-07 02:19:00,66.6,63.2,29.88,West,273,0.0,1.0,89,0.00,,,0.00,WeatherCatV1.15B25,2013-06-07 06:19:00,
2013-06-07 02:29:00,66.5,63.2,29.87,WNW,292,0.0,0.0,89,0.00,,,0.00,WeatherCatV1.15B25,2013-06-07 06:29:00,
2013-06-07 02:34:00,66.5,63.2,29.87,WNW,292,0.0,0.0,89,0.00,,,0.00,WeatherCatV1.15B25,2013-06-07 06:34:00,
2013-06-07 02:39:00,66.6,63.2,29.87,WNW,292,0.0,0.0,89,0.00,,,0.00,WeatherCatV1.15B25,2013-06-07 06:39:00,
2013-06-07 02:44:00,66.6,63.6,29.87,WNW,292,0.0,0.0,90,0.00,,,0.00,WeatherCatV1.15B25,2013-06-07 06:44:00,
2013-06-07 02:49:00,66.5,63.5,29.86,WNW,292,0.0,0.0,90,0.00,,,0.00,WeatherCatV1.15B25,2013-06-07 06:49:00,
2013-06-07 02:54:00,66.5,63.8,29.86,WNW,292,0.0,0.0,91,0.00,,,0.00,WeatherCatV1.15B25,2013-06-07 06:54:00,
2013-06-07 02:59:00,66.4,63.7,29.86,WNW,292,0.0,0.0,91,0.00,,,0.00,WeatherCatV1.15B25,2013-06-07 06:59:00,
2013-06-07 03:04:00,66.3,63.6,29.86,WNW,292,0.0,0.0,91,0.00,,,0.00,WeatherCatV1.15B25,2013-06-07 07:04:00,
2013-06-07 03:09:00,66.3,63.9,29.86,WNW,292,0.0,0.0,92,0.00,,,0.00,WeatherCatV1.15B25,2013-06-07 07:09:00,
2013-06-07 03:19:00,66.2,63.8,29.86,WNW,292,0.0,0.0,92,0.00,,,0.00,WeatherCatV1.15B25,2013-06-07 07:19:00,
2013-06-07 03:24:00,66.2,63.8,29.86,WNW,292,0.0,0.0,92,0.00,,,0.00,WeatherCatV1.15B25,2013-06-07 07:24:00,
2013-06-07 03:29:00,66.1,63.7,29.85,WNW,292,0.0,0.0,92,0.00,,,0.00,WeatherCatV1.15B25,2013-06-07 07:29:00,
2013-06-07 03:34:00,65.9,63.8,29.85,WNW,292,0.0,0.0,93,0.00,,,0.01,WeatherCatV1.15B25,2013-06-07 07:34:00,
2013-06-07 03:39:00,65.8,63.7,29.85,WNW,292,0.0,0.0,93,0.00,,,0.01,WeatherCatV1.15B25,2013-06-07 07:39:00,
2013-06-07 03:44:00,65.7,63.6,29.85,WNW,292,0.0,0.0,93,0.00,,,0.01,WeatherCatV1.15B25,2013-06-07 07:44:00,
2013-06-07 03:49:00,65.6,63.8,29.85,WNW,292,0.0,0.0,94,0.04,,,0.02,WeatherCatV1.15B25,2013-06-07 07:49:00,
2013-06-07 03:54:00,65.5,63.7,29.84,WNW,292,0.0,0.0,94,0.04,,,0.02,WeatherCatV1.15B25,2013-06-07 07:54:00,
2013-06-07 03:59:00,65.5,64.0,29.84,WNW,292,0.0,0.0,95,0.04,,,0.02,WeatherCatV1.15B25,2013-06-07 07:59:00,
2013-06-07 04:04:00,65.4,63.9,29.84,WNW,292,0.0,0.0,95,0.04,,,0.03,WeatherCatV1.15B25,2013-06-07 08:04:00,
2013-06-07 04:09:00,65.4,63.9,29.84,WNW,292,0.0,0.0,95,0.04,,,0.03,WeatherCatV1.15B25,2013-06-07 08:09:00,
2013-06-07 04:14:00,65.3,63.8,29.84,WNW,292,0.0,0.0,95,0.04,,,0.03,WeatherCatV1.15B25,2013-06-07 08:14:00,
2013-06-07 04:19:00,65.3,63.8,29.84,WNW,292,0.0,0.0,95,0.00,,,0.03,WeatherCatV1.15B25,2013-06-07 08:19:00,
2013-06-07 04:24:00,65.3,63.8,29.84,WNW,292,0.0,0.0,95,0.00,,,0.03,WeatherCatV1.15B25,2013-06-07 08:24:00,
2013-06-07 04:29:00,65.2,64.0,29.83,WNW,292,0.0,0.0,96,0.00,,,0.04,WeatherCatV1.15B25,2013-06-07 08:29:00,
2013-06-07 04:34:00,65.2,64.0,29.83,WNW,292,0.0,0.0,96,0.00,,,0.04,WeatherCatV1.15B25,2013-06-07 08:34:00,
2013-06-07 04:39:00,65.1,63.9,29.83,WNW,292,0.0,0.0,96,0.00,,,0.04,WeatherCatV1.15B25,2013-06-07 08:39:00,
2013-06-07 04:44:00,65.1,63.9,29.83,WNW,292,0.0,0.0,96,0.00,,,0.04,WeatherCatV1.15B25,2013-06-07 08:44:00,
2013-06-07 04:49:00,65.1,63.9,29.83,WNW,292,0.0,0.0,96,0.00,,,0.04,WeatherCatV1.15B25,2013-06-07 08:49:00,
2013-06-07 04:54:00,65.0,63.8,29.83,WNW,292,0.0,0.0,96,0.00,,,0.04,WeatherCatV1.15B25,2013-06-07 08:54:00,
2013-06-07 04:59:00,65.0,63.8,29.83,WNW,292,0.0,0.0,96,0.00,,,0.04,WeatherCatV1.15B25,2013-06-07 08:59:00,
2013-06-07 05:04:00,65.0,63.8,29.83,WNW,292,0.0,0.0,96,0.00,,,0.04,WeatherCatV1.15B25,2013-06-07 09:04:00,
2013-06-07 05:09:00,65.0,63.8,29.83,WNW,292,0.0,0.0,96,0.00,,,0.05,WeatherCatV1.15B25,2013-06-07 09:09:00,
2013-06-07 05:14:00,64.9,63.7,29.83,WNW,292,0.0,0.0,96,0.00,,,0.05,WeatherCatV1.15B25,2013-06-07 09:14:00,
2013-06-07 05:19:00,64.9,63.7,29.83,WNW,292,0.0,0.0,96,0.00,,,0.05,WeatherCatV1.15B25,2013-06-07 09:19:00,
2013-06-07 05:24:00,64.9,63.7,29.83,WNW,292,0.0,0.0,96,0.00,,,0.05,WeatherCatV1.15B25,2013-06-07 09:24:00,
2013-06-07 05:29:00,64.9,63.7,29.83,WNW,292,0.0,0.0,96,0.00,,,0.05,WeatherCatV1.15B25,2013-06-07 09:29:00,
2013-06-07 05:34:00,64.8,63.6,29.83,WNW,292,0.0,0.0,96,0.00,,,0.05,WeatherCatV1.15B25,2013-06-07 09:34:00,
2013-06-07 05:39:00,64.8,63.6,29.83,WNW,292,0.0,0.0,96,0.00,,,0.05,WeatherCatV1.15B25,2013-06-07 09:39:00,
2013-06-07 05:44:00,64.8,63.6,29.82,WNW,292,0.0,0.0,96,0.00,,,0.05,WeatherCatV1.15B25,2013-06-07 09:44:00,
2013-06-07 05:49:00,64.7,63.5,29.82,WNW,292,0.0,0.0,96,0.00,,,0.05,WeatherCatV1.15B25,2013-06-07 09:49:00,
2013-06-07 05:54:00,64.7,63.8,29.82,WNW,283,0.0,0.0,97,0.00,,,0.05,WeatherCatV1.15B25,2013-06-07 09:54:00,
2013-06-07 05:59:00,64.6,63.7,29.83,WNW,283,0.0,0.0,97,0.00,,,0.05,WeatherCatV1.15B25,2013-06-07 09:59:00,
2013-06-07 06:04:00,64.6,63.7,29.83,WNW,283,0.0,0.0,97,0.00,,,0.05,WeatherCatV1.15B25,2013-06-07 10:04:00,
2013-06-07 06:09:00,64.5,63.6,29.83,WNW,283,0.0,0.0,97,0.00,,,0.05,WeatherCatV1.15B25,2013-06-07 10:09:00,
2013-06-07 06:14:00,64.6,63.7,29.83,WNW,283,0.0,0.0,97,0.00,,,0.05,WeatherCatV1.15B25,2013-06-07 10:14:00,
2013-06-07 06:19:00,64.5,63.6,29.83,WNW,283,0.0,0.0,97,0.00,,,0.05,WeatherCatV1.15B25,2013-06-07 10:19:00,
2013-06-07 06:24:00,64.6,63.7,29.83,WNW,283,0.0,0.0,97,0.00,,,0.05,WeatherCatV1.15B25,2013-06-07 10:24:00,
2013-06-07 06:29:00,64.6,63.7,29.83,WNW,283,0.0,0.0,97,0.00,,,0.05,WeatherCatV1.15B25,2013-06-07 10:29:00,
2013-06-07 06:34:00,64.6,63.7,29.83,WNW,283,0.0,0.0,97,0.00,,,0.05,WeatherCatV1.15B25,2013-06-07 10:34:00,
2013-06-07 06:39:00,64.5,63.6,29.83,WNW,283,0.0,0.0,97,0.00,,,0.05,WeatherCatV1.15B25,2013-06-07 10:39:00,
2013-06-07 06:44:00,64.6,63.7,29.83,WNW,283,0.0,0.0,97,0.00,,,0.05,WeatherCatV1.15B25,2013-06-07 10:44:00,
2013-06-07 06:49:00,64.5,63.6,29.83,WNW,283,0.0,0.0,97,0.00,,,0.05,WeatherCatV1.15B25,2013-06-07 10:49:00,
2013-06-07 06:54:00,64.6,63.7,29.83,WNW,283,0.0,0.0,97,0.00,,,0.05,WeatherCatV1.15B25,2013-06-07 10:54:00,
2013-06-07 06:59:00,64.6,63.7,29.83,WNW,283,0.0,0.0,97,0.00,,,0.05,WeatherCatV1.15B25,2013-06-07 10:59:00,
2013-06-07 07:04:00,64.6,63.7,29.83,WNW,283,0.0,0.0,97,0.00,,,0.05,WeatherCatV1.15B25,2013-06-07 11:04:00,
2013-06-07 07:09:00,64.6,63.7,29.83,WNW,283,0.0,0.0,97,0.00,,,0.05,WeatherCatV1.15B25,2013-06-07 11:09:00,
2013-06-07 07:14:00,64.5,63.6,29.83,WNW,283,0.0,0.0,97,0.00,,,0.05,WeatherCatV1.15B25,2013-06-07 11:14:00,
2013-06-07 07:19:00,64.6,63.7,29.83,WNW,283,0.0,0.0,97,0.00,,,0.05,WeatherCatV1.15B25,2013-06-07 11:19:00,
2013-06-07 07:24:00,64.6,64.0,29.83,WNW,283,0.0,1.0,98,0.00,,,0.05,WeatherCatV1.15B25,2013-06-07 11:24:00,
2013-06-07 07:29:00,64.5,63.6,29.83,WNW,283,0.0,0.0,97,0.00,,,0.05,WeatherCatV1.15B25,2013-06-07 11:29:00,
2013-06-07 07:34:00,64.5,63.6,29.83,WNW,283,0.0,0.0,97,0.00,,,0.05,WeatherCatV1.15B25,2013-06-07 11:34:00,
2013-06-07 07:39:00,64.5,63.6,29.83,WNW,283,0.0,0.0,97,0.00,,,0.05,WeatherCatV1.15B25,2013-06-07 11:39:00,
2013-06-07 07:44:00,64.5,63.6,29.83,WNW,283,0.0,0.0,97,0.00,,,0.05,WeatherCatV1.15B25,2013-06-07 11:44:00,
2013-06-07 07:49:00,64.5,63.6,29.83,SSW,210,0.0,1.0,97,0.00,,,0.05,WeatherCatV1.15B25,2013-06-07 11:49:00,
2013-06-07 07:54:00,64.4,63.5,29.83,SSW,213,0.0,1.0,97,0.00,,,0.05,WeatherCatV1.15B25,2013-06-07 11:54:00,
2013-06-07 07:59:00,64.5,63.6,29.83,SSW,213,0.0,0.0,97,0.00,,,0.05,WeatherCatV1.15B25,2013-06-07 11:59:00,
2013-06-07 08:04:00,64.6,64.0,29.83,SSW,213,0.0,0.0,98,0.00,,,0.05,WeatherCatV1.15B25,2013-06-07 12:04:00,
2013-06-07 08:09:00,64.6,64.0,29.83,SSW,213,0.0,0.0,98,0.00,,,0.06,WeatherCatV1.15B25,2013-06-07 12:09:00,
2013-06-07 08:14:00,64.7,64.1,29.83,SSW,213,0.0,1.0,98,0.00,,,0.06,WeatherCatV1.15B25,2013-06-07 12:14:00,
2013-06-07 08:19:00,64.7,64.1,29.83,SSW,212,0.0,0.0,98,0.06,,,0.07,WeatherCatV1.15B25,2013-06-07 12:19:00,
2013-06-07 08:24:00,64.7,64.1,29.83,SSW,213,0.0,0.0,98,0.11,,,0.08,WeatherCatV1.15B25,2013-06-07 12:24:00,
2013-06-07 08:29:00,64.7,64.1,29.83,SSW,212,0.0,0.0,98,0.08,,,0.08,WeatherCatV1.15B25,2013-06-07 12:29:00,
2013-06-07 08:34:00,64.7,64.1,29.83,SSW,212,1.0,1.0,98,0.05,,,0.08,WeatherCatV1.15B25,2013-06-07 12:34:00,
2013-06-07 08:39:00,64.7,64.1,29.83,SSW,212,0.0,0.0,98,0.00,,,0.08,WeatherCatV1.15B25,2013-06-07 12:39:00,
2013-06-07 08:44:00,64.7,64.1,29.83,SSW,212,0.0,0.0,98,0.00,,,0.08,WeatherCatV1.15B25,2013-06-07 12:44:00,
2013-06-07 08:49:00,64.7,64.1,29.83,SSW,212,0.0,0.0,98,0.00,,,0.08,WeatherCatV1.15B25,2013-06-07 12:49:00,
2013-06-07 08:54:00,64.8,64.2,29.84,SSW,213,0.0,0.0,98,0.00,,,0.08,WeatherCatV1.15B25,2013-06-07 12:54:00,
2013-06-07 08:59:00,64.8,64.2,29.84,SSW,213,0.0,1.0,98,0.00,,,0.09,WeatherCatV1.15B25,2013-06-07 12:59:00,
2013-06-07 09:04:00,64.9,64.3,29.84,SW,216,0.0,0.0,98,0.00,,,0.09,WeatherCatV1.15B25,2013-06-07 13:04:00,
2013-06-07 09:09:00,64.9,64.3,29.84,SW,216,0.0,0.0,98,0.00,,,0.09,WeatherCatV1.15B25,2013-06-07 13:09:00,
2013-06-07 09:14:00,65.0,64.4,29.84,SW,216,0.0,1.0,98,0.00,,,0.09,WeatherCatV1.15B25,2013-06-07 13:14:00,
2013-06-07 09:19:00,65.0,64.4,29.84,SSE,162,1.0,3.0,98,0.00,,,0.09,WeatherCatV1.15B25,2013-06-07 13:19:00,
2013-06-07 09:24:00,64.9,64.3,29.84,SW,223,1.0,1.0,98,0.00,,,0.09,WeatherCatV1.15B25,2013-06-07 13:24:00,
2013-06-07 09:29:00,65.0,64.4,29.84,SW,223,2.0,3.0,98,0.00,,,0.09,WeatherCatV1.15B25,2013-06-07 13:29:00,
2013-06-07 09:34:00,65.0,64.4,29.84,SSW,207,0.0,1.0,98,0.00,,,0.09,WeatherCatV1.15B25,2013-06-07 13:34:00,
2013-06-07 09:39:00,65.0,64.4,29.84,SSW,213,2.0,4.0,98,0.00,,,0.10,WeatherCatV1.15B25,2013-06-07 13:39:00,
2013-06-07 09:44:00,65.0,64.4,29.84,SSW,212,0.0,0.0,98,0.00,,,0.10,WeatherCatV1.15B25,2013-06-07 13:44:00,
2013-06-07 09:49:00,65.1,64.5,29.84,SW,225,2.0,3.0,98,0.00,,,0.10,WeatherCatV1.15B25,2013-06-07 13:49:00,
2013-06-07 09:54:00,65.1,64.5,29.84,SW,225,0.0,0.0,98,0.00,,,0.10,WeatherCatV1.15B25,2013-06-07 13:54:00,
2013-06-07 09:59:00,65.2,64.6,29.84,SW,225,0.0,1.0,98,0.00,,,0.10,WeatherCatV1.15B25,2013-06-07 13:59:00,
2013-06-07 10:04:00,65.3,64.7,29.84,SW,224,0.0,0.0,98,0.00,,,0.11,WeatherCatV1.15B25,2013-06-07 14:04:00,
2013-06-07 10:09:00,65.4,64.8,29.84,SW,225,1.0,1.0,98,0.00,,,0.11,WeatherCatV1.15B25,2013-06-07 14:09:00,
2013-06-07 10:14:00,65.5,64.9,29.84,SW,225,0.0,1.0,98,0.00,,,0.11,WeatherCatV1.15B25,2013-06-07 14:14:00,
2013-06-07 10:19:00,65.7,65.1,29.84,SW,225,0.0,1.0,98,0.00,,,0.11,WeatherCatV1.15B25,2013-06-07 14:19:00,
2013-06-07 10:24:00,65.8,65.2,29.84,SW,222,0.0,1.0,98,0.00,,,0.11,WeatherCatV1.15B25,2013-06-07 14:24:00,
2013-06-07 10:29:00,65.8,65.2,29.84,SW,232,0.0,2.0,98,0.00,,,0.11,WeatherCatV1.15B25,2013-06-07 14:29:00,
2013-06-07 10:34:00,65.9,65.3,29.84,SW,232,0.0,0.0,98,0.00,,,0.11,WeatherCatV1.15B25,2013-06-07 14:34:00,
2013-06-07 10:39:00,66.1,65.5,29.84,SW,229,0.0,1.0,98,0.00,,,0.11,WeatherCatV1.15B25,2013-06-07 14:39:00,
2013-06-07 10:44:00,66.2,65.6,29.84,South,185,1.0,3.0,98,0.00,,,0.11,WeatherCatV1.15B25,2013-06-07 14:44:00,
2013-06-07 10:49:00,66.3,65.7,29.84,SSE,159,0.0,4.0,98,0.00,,,0.11,WeatherCatV1.15B25,2013-06-07 14:49:00,
2013-06-07 10:54:00,66.3,65.7,29.84,South,172,0.0,2.0,98,0.00,,,0.11,WeatherCatV1.15B25,2013-06-07 14:54:00,
2013-06-07 10:59:00,66.4,65.5,29.84,SSW,192,0.0,1.0,97,0.00,,,0.11,WeatherCatV1.15B25,2013-06-07 14:59:00,
2013-06-07 11:04:00,66.4,65.5,29.84,SW,231,2.0,3.0,97,0.00,,,0.11,WeatherCatV1.15B25,2013-06-07 15:04:00,
2013-06-07 11:09:00,66.4,65.5,29.84,South,175,1.0,2.0,97,0.00,,,0.11,WeatherCatV1.15B25,2013-06-07 15:09:00,
2013-06-07 11:14:00,66.5,65.6,29.84,SSW,202,0.0,2.0,97,0.00,,,0.11,WeatherCatV1.15B25,2013-06-07 15:14:00,
2013-06-07 11:19:00,66.4,65.5,29.84,South,169,1.0,2.0,97,0.00,,,0.11,WeatherCatV1.15B25,2013-06-07 15:19:00,
2013-06-07 11:24:00,66.5,65.6,29.84,South,186,0.0,1.0,97,0.00,,,0.11,WeatherCatV1.15B25,2013-06-07 15:24:00,
2013-06-07 11:29:00,66.6,66.0,29.85,SSW,192,0.0,1.0,98,0.00,,,0.11,WeatherCatV1.15B25,2013-06-07 15:29:00,
2013-06-07 11:34:00,66.7,65.8,29.84,SSW,196,1.0,4.0,97,0.00,,,0.11,WeatherCatV1.15B25,2013-06-07 15:34:00,
2013-06-07 11:39:00,66.7,65.8,29.84,SSW,195,0.0,0.0,97,0.00,,,0.11,WeatherCatV1.15B25,2013-06-07 15:39:00,
2013-06-07 11:44:00,66.8,65.9,29.84,SW,218,1.0,3.0,97,0.00,,,0.11,WeatherCatV1.15B25,2013-06-07 15:44:00,
2013-06-07 11:49:00,66.8,65.9,29.85,SSE,154,0.0,5.0,97,0.00,,,0.11,WeatherCatV1.15B25,2013-06-07 15:49:00,
2013-06-07 11:54:00,66.9,66.0,29.85,South,172,2.0,6.0,97,0.00,,,0.11,WeatherCatV1.15B25,2013-06-07 15:54:00,
2013-06-07 11:59:00,67.0,66.1,29.85,SSW,200,1.0,1.0,97,0.00,,,0.11,WeatherCatV1.15B25,2013-06-07 15:59:00,
2013-06-07 12:04:00,67.2,66.3,29.85,SSW,204,0.0,1.0,97,0.00,,,0.11,WeatherCatV1.15B25,2013-06-07 16:04:00,
2013-06-07 12:09:00,67.3,66.4,29.85,WSW,243,0.0,2.0,97,0.00,,,0.11,WeatherCatV1.15B25,2013-06-07 16:09:00,
2013-06-07 12:14:00,67.4,66.2,29.85,SSE,163,1.0,5.0,96,0.00,,,0.11,WeatherCatV1.15B25,2013-06-07 16:14:00,
2013-06-07 12:19:00,67.6,66.4,29.85,SSW,194,0.0,4.0,96,0.00,,,0.11,WeatherCatV1.15B25,2013-06-07 16:19:00,
2013-06-07 12:24:00,67.9,66.7,29.85,SSW,211,1.0,3.0,96,0.00,,,0.11,WeatherCatV1.15B25,2013-06-07 16:24:00,
2013-06-07 12:29:00,68.2,67.0,29.85,South,189,2.0,4.0,96,0.00,,,0.11,WeatherCatV1.15B25,2013-06-07 16:29:00,
2013-06-07 12:34:00,68.4,67.2,29.85,SSE,163,1.0,6.0,96,0.00,,,0.11,WeatherCatV1.15B25,2013-06-07 16:34:00,
2013-06-07 12:39:00,68.4,66.9,29.85,SSW,192,2.0,2.0,95,0.00,,,0.11,WeatherCatV1.15B25,2013-06-07 16:39:00,
2013-06-07 12:44:00,68.4,66.9,29.85,SW,226,1.0,5.0,95,0.00,,,0.11,WeatherCatV1.15B25,2013-06-07 16:44:00,
2013-06-07 12:49:00,68.4,66.9,29.85,SW,219,3.0,3.0,95,0.00,,,0.11,WeatherCatV1.15B25,2013-06-07 16:49:00,
2013-06-07 12:54:00,68.4,66.6,29.85,SW,219,0.0,4.0,94,0.00,,,0.11,WeatherCatV1.15B25,2013-06-07 16:54:00,
2013-06-07 12:59:00,68.5,66.7,29.86,South,179,2.0,3.0,94,0.00,,,0.11,WeatherCatV1.15B25,2013-06-07 16:59:00,
2013-06-07 13:04:00,68.6,66.5,29.86,South,182,1.0,3.0,93,0.00,,,0.11,WeatherCatV1.15B25,2013-06-07 17:04:00,
2013-06-07 13:09:00,68.8,67.0,29.86,SSW,194,0.0,5.0,94,0.00,,,0.11,WeatherCatV1.15B25,2013-06-07 17:09:00,
2013-06-07 13:14:00,68.9,66.5,29.86,South,178,2.0,4.0,92,0.00,,,0.11,WeatherCatV1.15B25,2013-06-07 17:14:00,
2013-06-07 13:19:00,69.1,66.7,29.86,SW,225,0.0,4.0,92,0.00,,,0.11,WeatherCatV1.15B25,2013-06-07 17:19:00,
2013-06-07 13:24:00,69.4,67.0,29.86,South,180,0.0,2.0,92,0.00,,,0.11,WeatherCatV1.15B25,2013-06-07 17:24:00,
2013-06-07 13:29:00,69.7,66.9,29.85,SSW,194,0.0,3.0,91,0.00,,,0.11,WeatherCatV1.15B25,2013-06-07 17:29:00,
2013-06-07 13:34:00,70.3,67.5,29.86,SSE,161,2.0,4.0,91,0.00,,,0.11,WeatherCatV1.15B25,2013-06-07 17:34:00,
2013-06-07 13:39:00,71.0,67.3,29.85,SSW,194,0.0,3.0,88,0.00,,,0.11,WeatherCatV1.15B25,2013-06-07 17:39:00,
2013-06-07 13:44:00,71.7,67.6,29.85,SSW,196,1.0,4.0,87,0.00,,,0.11,WeatherCatV1.15B25,2013-06-07 17:44:00,
2013-06-07 13:49:00,72.3,67.9,29.85,SSW,208,1.0,3.0,86,0.00,,,0.11,WeatherCatV1.15B25,2013-06-07 17:49:00,
2013-06-07 13:54:00,73.0,68.6,29.85,South,185,0.0,4.0,86,0.00,,,0.11,WeatherCatV1.15B25,2013-06-07 17:54:00,
2013-06-07 13:59:00,73.6,67.4,29.85,SE,141,3.0,3.0,81,0.00,,,0.11,WeatherCatV1.15B25,2013-06-07 17:59:00,
2013-06-07 14:04:00,73.9,69.1,29.85,SSW,210,2.0,2.0,85,0.00,,,0.11,WeatherCatV1.15B25,2013-06-07 18:04:00,
2013-06-07 14:09:00,74.2,66.9,29.85,SSW,192,2.0,3.0,78,0.00,,,0.11,WeatherCatV1.15B25,2013-06-07 18:09:00,
2013-06-07 14:14:00,74.5,66.8,29.85,SSE,153,0.0,5.0,77,0.00,,,0.11,WeatherCatV1.15B25,2013-06-07 18:14:00,
2013-06-07 14:19:00,74.5,67.5,29.85,SSE,151,3.0,5.0,79,0.00,,,0.11,WeatherCatV1.15B25,2013-06-07 18:19:00,
2013-06-07 14:24:00,74.5,67.5,29.85,SSE,161,0.0,3.0,79,0.00,,,0.11,WeatherCatV1.15B25,2013-06-07 18:24:00,
2013-06-07 14:29:00,74.6,66.5,29.84,South,182,3.0,3.0,76,0.00,,,0.11,WeatherCatV1.15B25,2013-06-07 18:29:00,
2013-06-07 14:34:00,74.8,67.8,29.84,South,171,3.0,7.0,79,0.00,,,0.11,WeatherCatV1.15B25,2013-06-07 18:34:00,
2013-06-07 14:39:00,75.1,67.4,29.84,SSW,197,3.0,3.0,77,0.00,,,0.11,WeatherCatV1.15B25,2013-06-07 18:39:00,
2013-06-07 14:44:00,75.7,67.2,29.84,South,184,2.0,3.0,75,0.00,,,0.11,WeatherCatV1.15B25,2013-06-07 18:44:00,
2013-06-07 14:49:00,76.0,66.3,29.85,SE,140,3.0,11.0,72,0.00,,,0.11,WeatherCatV1.15B25,2013-06-07 18:49:00,
2013-06-07 14:59:00,76.0,67.5,29.84,NE,43,1.0,3.0,75,0.00,,,0.11,WeatherCatV1.15B25,2013-06-07 18:59:00,
2013-06-07 15:04:00,76.5,67.6,29.84,NE,47,1.0,5.0,74,0.00,,,0.11,WeatherCatV1.15B25,2013-06-07 19:04:00,
2013-06-07 15:09:00,76.6,68.1,29.84,SSE,161,0.0,0.0,75,0.00,,,0.11,WeatherCatV1.15B25,2013-06-07 19:09:00,
2013-06-07 15:14:00,76.3,66.6,29.84,SSW,193,0.0,1.0,72,0.00,,,0.11,WeatherCatV1.15B25,2013-06-07 19:14:00,
2013-06-07 15:24:00,76.8,66.7,29.84,South,169,2.0,7.0,71,0.00,,,0.11,WeatherCatV1.15B25,2013-06-07 19:24:00,
2013-06-07 15:34:00,77.8,66.4,29.84,NE,40,3.0,6.0,68,0.00,,,0.11,WeatherCatV1.15B25,2013-06-07 19:34:00,
2013-06-07 15:39:00,78.0,66.6,29.84,South,180,1.0,1.0,68,0.00,,,0.11,WeatherCatV1.15B25,2013-06-07 19:39:00,
2013-06-07 15:44:00,78.2,66.8,29.84,ESE,111,0.0,3.0,68,0.00,,,0.11,WeatherCatV1.15B25,2013-06-07 19:44:00,
2013-06-07 15:54:00,78.7,65.9,29.84,East,80,0.0,3.0,65,0.00,,,0.11,WeatherCatV1.15B25,2013-06-07 19:54:00,
2013-06-07 15:59:00,78.9,67.4,29.84,SSW,200,0.0,1.0,68,0.00,,,0.11,WeatherCatV1.15B25,2013-06-07 19:59:00,
2013-06-07 16:09:00,79.4,67.5,29.84,WNW,303,0.0,1.0,67,0.00,,,0.11,WeatherCatV1.15B25,2013-06-07 20:09:00,
2013-06-07 16:14:00,79.3,67.8,29.83,WNW,288,0.0,1.0,68,0.00,,,0.11,WeatherCatV1.15B25,2013-06-07 20:14:00,
2013-06-07 16:29:00,78.7,67.7,29.83,SSW,194,0.0,1.0,69,0.00,,,0.11,WeatherCatV1.15B25,2013-06-07 20:29:00,
2013-06-07 16:39:00,78.4,67.8,29.84,NE,50,0.0,3.0,70,0.00,,,0.11,WeatherCatV1.15B25,2013-06-07 20:39:00,
2013-06-07 16:44:00,78.5,67.0,29.84,WSW,248,1.0,3.0,68,0.00,,,0.11,WeatherCatV1.15B25,2013-06-07 20:44:00,
2013-06-07 16:49:00,78.4,66.5,29.84,WNW,285,1.0,3.0,67,0.00,,,0.11,WeatherCatV1.15B25,2013-06-07 20:49:00,
2013-06-07 16:54:00,78.4,67.8,29.84,NE,53,1.0,2.0,70,0.00,,,0.11,WeatherCatV1.15B25,2013-06-07 20:54:00,
2013-06-07 16:59:00,78.3,66.4,29.85,East,93,0.0,3.0,67,0.00,,,0.11,WeatherCatV1.15B25,2013-06-07 20:59:00,
2013-06-07 17:04:00,78.3,66.8,29.85,SSW,195,0.0,1.0,68,0.00,,,0.11,WeatherCatV1.15B25,2013-06-07 21:04:00,
2013-06-07 17:09:00,77.6,65.3,29.85,ESE,107,0.0,6.0,66,0.00,,,0.11,WeatherCatV1.15B25,2013-06-07 21:09:00,
2013-06-07 17:14:00,76.8,66.3,29.85,SE,125,0.0,2.0,70,0.00,,,0.11,WeatherCatV1.15B25,2013-06-07 21:14:00,
2013-06-07 17:19:00,76.4,66.3,29.85,SE,142,0.0,1.0,71,0.00,,,0.11,WeatherCatV1.15B25,2013-06-07 21:19:00,
2013-06-07 17:24:00,76.1,66.0,29.85,SW,226,0.0,2.0,71,0.00,,,0.11,WeatherCatV1.15B25,2013-06-07 21:24:00,
2013-06-07 17:29:00,75.8,65.7,29.85,East,93,0.0,4.0,71,0.00,,,0.11,WeatherCatV1.15B25,2013-06-07 21:29:00,
2013-06-07 17:34:00,75.4,66.1,29.85,ESE,113,0.0,1.0,73,0.00,,,0.11,WeatherCatV1.15B25,2013-06-07 21:34:00,
2013-06-07 17:39:00,75.2,65.5,29.85,ESE,119,0.0,0.0,72,0.00,,,0.11,WeatherCatV1.15B25,2013-06-07 21:39:00,
2013-06-07 17:44:00,75.1,65.8,29.85,WNW,291,0.0,1.0,73,0.00,,,0.11,WeatherCatV1.15B25,2013-06-07 21:44:00,
2013-06-07 17:49:00,74.8,65.5,29.85,SE,127,0.0,2.0,73,0.00,,,0.11,WeatherCatV1.15B25,2013-06-07 21:49:00,
2013-06-07 17:54:00,74.4,65.9,29.86,SW,234,0.0,2.0,75,0.00,,,0.11,WeatherCatV1.15B25,2013-06-07 21:54:00,
2013-06-07 17:59:00,74.3,65.8,29.86,WSW,254,1.0,3.0,75,0.00,,,0.11,WeatherCatV1.15B25,2013-06-07 21:59:00,
2013-06-07 18:09:00,74.2,65.8,29.85,SSE,157,0.0,2.0,75,0.00,,,0.11,WeatherCatV1.15B25,2013-06-07 22:09:00,
2013-06-07 18:14:00,74.2,66.1,29.85,ENE,69,0.0,0.0,76,0.00,,,0.11,WeatherCatV1.15B25,2013-06-07 22:14:00,
2013-06-07 18:19:00,74.3,66.6,29.85,SW,219,0.0,0.0,77,0.00,,,0.11,WeatherCatV1.15B25,2013-06-07 22:19:00,
2013-06-07 18:24:00,74.1,66.0,29.85,SSW,201,0.0,1.0,76,0.00,,,0.11,WeatherCatV1.15B25,2013-06-07 22:24:00,
2013-06-07 18:34:00,73.8,65.7,29.85,SW,230,0.0,1.0,76,0.00,,,0.11,WeatherCatV1.15B25,2013-06-07 22:34:00,
2013-06-07 18:39:00,73.6,66.3,29.86,SE,130,0.0,1.0,78,0.00,,,0.11,WeatherCatV1.15B25,2013-06-07 22:39:00,
2013-06-07 18:44:00,73.4,65.7,29.86,SE,144,1.0,1.0,77,0.00,,,0.11,WeatherCatV1.15B25,2013-06-07 22:44:00,
2013-06-07 18:49:00,73.3,65.3,29.86,SSW,200,0.0,2.0,76,0.00,,,0.11,WeatherCatV1.15B25,2013-06-07 22:49:00,
2013-06-07 18:54:00,73.1,65.4,29.86,SE,144,0.0,0.0,77,0.00,,,0.11,WeatherCatV1.15B25,2013-06-07 22:54:00,
2013-06-07 18:59:00,72.9,65.6,29.86,SE,144,0.0,0.0,78,0.00,,,0.11,WeatherCatV1.15B25,2013-06-07 22:59:00,
2013-06-07 19:04:00,72.7,65.1,29.86,WSW,244,2.0,2.0,77,0.00,,,0.11,WeatherCatV1.15B25,2013-06-07 23:04:00,
2013-06-07 19:09:00,72.5,64.9,29.86,SSW,212,2.0,3.0,77,0.00,,,0.11,WeatherCatV1.15B25,2013-06-07 23:09:00,
2013-06-07 19:14:00,72.2,64.6,29.87,SSW,202,1.0,5.0,77,0.00,,,0.11,WeatherCatV1.15B25,2013-06-07 23:14:00,
2013-06-07 19:19:00,72.1,64.5,29.86,South,180,1.0,2.0,77,0.00,,,0.11,WeatherCatV1.15B25,2013-06-07 23:19:00,
2013-06-07 19:24:00,71.9,65.0,29.87,SSW,209,0.0,1.0,79,0.00,,,0.11,WeatherCatV1.15B25,2013-06-07 23:24:00,
2013-06-07 19:29:00,71.7,65.2,29.87,SSW,209,0.0,0.0,80,0.00,,,0.11,WeatherCatV1.15B25,2013-06-07 23:29:00,
2013-06-07 19:34:00,71.6,65.4,29.88,SSW,208,0.0,0.0,81,0.00,,,0.11,WeatherCatV1.15B25,2013-06-07 23:34:00,
2013-06-07 19:39:00,71.4,65.6,29.89,SSW,208,0.0,0.0,82,0.00,,,0.11,WeatherCatV1.15B25,2013-06-07 23:39:00,
2013-06-07 19:44:00,71.3,66.2,29.90,SSW,209,0.0,0.0,84,0.00,,,0.11,WeatherCatV1.15B25,2013-06-07 23:44:00,
2013-06-07 19:49:00,70.8,65.7,29.90,SSW,209,1.0,1.0,84,0.00,,,0.11,WeatherCatV1.15B25,2013-06-07 23:49:00,
2013-06-07 19:54:00,70.3,65.9,29.90,SSW,208,0.0,0.0,86,0.00,,,0.11,WeatherCatV1.15B25,2013-06-07 23:54:00,
2013-06-07 20:04:00,69.7,66.0,29.90,SSW,209,0.0,0.0,88,0.00,,,0.11,WeatherCatV1.15B25,2013-06-08 00:04:00,
2013-06-07 20:09:00,69.5,65.8,29.91,SSW,209,0.0,0.0,88,0.00,,,0.11,WeatherCatV1.15B25,2013-06-08 00:09:00,
2013-06-07 20:14:00,69.2,66.1,29.91,SSW,209,0.0,0.0,90,0.00,,,0.12,WeatherCatV1.15B25,2013-06-08 00:14:00,
2013-06-07 20:19:00,69.0,65.9,29.91,SSW,209,0.0,0.0,90,0.00,,,0.12,WeatherCatV1.15B25,2013-06-08 00:19:00,
2013-06-07 20:34:00,67.2,63.5,29.93,SW,219,0.0,1.0,88,0.26,,,0.16,WeatherCatV1.15B25,2013-06-08 00:34:00,
2013-06-07 20:39:00,66.3,63.0,29.94,SSW,196,0.0,1.0,89,1.01,,,0.20,WeatherCatV1.15B25,2013-06-08 00:39:00,
2013-06-07 20:44:00,65.7,62.7,29.94,ENE,62,2.0,2.0,90,2.02,,,0.34,WeatherCatV1.15B25,2013-06-08 00:44:00,
2013-06-07 20:49:00,65.2,62.5,29.94,ENE,62,0.0,0.0,91,0.72,,,0.44,WeatherCatV1.15B25,2013-06-08 00:49:00,
2013-06-07 20:54:00,64.9,62.8,29.94,ENE,62,0.0,0.0,93,0.53,,,0.49,WeatherCatV1.15B25,2013-06-08 00:54:00,
2013-06-07 20:59:00,64.6,62.2,29.93,NNE,24,0.0,1.0,92,0.31,,,0.52,WeatherCatV1.15B25,2013-06-08 00:59:00,
2013-06-07 21:09:00,63.5,61.1,29.95,WSW,244,0.0,3.0,92,0.24,,,0.56,WeatherCatV1.15B25,2013-06-08 01:09:00,
2013-06-07 21:14:00,63.3,61.5,29.95,SSE,161,0.0,1.0,94,1.03,,,0.60,WeatherCatV1.15B25,2013-06-08 01:14:00,
2013-06-07 21:19:00,62.9,61.1,29.94,ENE,63,0.0,2.0,94,0.27,,,0.64,WeatherCatV1.15B25,2013-06-08 01:19:00,
2013-06-07 21:34:00,62.5,61.0,29.94,ENE,63,0.0,0.0,95,0.04,,,0.65,WeatherCatV1.15B25,2013-06-08 01:34:00,
2013-06-07 21:39:00,62.3,60.8,29.94,North,355,2.0,2.0,95,0.00,,,0.65,WeatherCatV1.15B25,2013-06-08 01:39:00,
2013-06-07 21:44:00,62.2,60.7,29.94,NNW,331,0.0,0.0,95,0.00,,,0.65,WeatherCatV1.15B25,2013-06-08 01:44:00,
2013-06-07 21:49:00,62.2,61.0,29.94,NNW,331,0.0,0.0,96,0.00,,,0.65,WeatherCatV1.15B25,2013-06-08 01:49:00,
2013-06-07 21:54:00,62.2,61.0,29.94,NNW,331,0.0,0.0,96,0.00,,,0.65,WeatherCatV1.15B25,2013-06-08 01:54:00,
2013-06-07 21:59:00,62.3,61.1,29.94,NNW,331,0.0,0.0,96,0.00,,,0.65,WeatherCatV1.15B25,2013-06-08 01:59:00,
2013-06-07 22:04:00,62.4,61.2,29.95,NNW,331,0.0,0.0,96,0.00,,,0.65,WeatherCatV1.15B25,2013-06-08 02:04:00,
2013-06-07 22:09:00,62.6,61.7,29.95,NNW,332,0.0,1.0,97,0.00,,,0.65,WeatherCatV1.15B25,2013-06-08 02:09:00,
2013-06-07 22:14:00,62.8,61.9,29.95,East,86,0.0,1.0,97,0.00,,,0.65,WeatherCatV1.15B25,2013-06-08 02:14:00,
2013-06-07 22:19:00,62.9,62.0,29.96,NW,325,0.0,0.0,97,0.00,,,0.65,WeatherCatV1.15B25,2013-06-08 02:19:00,
2013-06-07 22:24:00,62.8,61.6,29.96,NNW,327,0.0,1.0,96,0.00,,,0.65,WeatherCatV1.15B25,2013-06-08 02:24:00,
2013-06-07 22:29:00,62.7,61.5,29.95,North,5,0.0,1.0,96,0.00,,,0.65,WeatherCatV1.15B25,2013-06-08 02:29:00,
2013-06-07 22:34:00,62.6,61.4,29.95,North,5,0.0,1.0,96,0.00,,,0.65,WeatherCatV1.15B25,2013-06-08 02:34:00,
2013-06-07 22:39:00,62.6,61.4,29.95,NE,34,0.0,1.0,96,0.00,,,0.65,WeatherCatV1.15B25,2013-06-08 02:39:00,
2013-06-07 22:44:00,62.6,61.4,29.95,NNW,338,0.0,0.0,96,0.00,,,0.65,WeatherCatV1.15B25,2013-06-08 02:44:00,
2013-06-07 22:49:00,62.6,61.4,29.96,NNW,338,0.0,0.0,96,0.00,,,0.65,WeatherCatV1.15B25,2013-06-08 02:49:00,
2013-06-07 22:54:00,62.5,61.6,29.96,NNW,338,0.0,0.0,97,0.00,,,0.65,WeatherCatV1.15B25,2013-06-08 02:54:00,
2013-06-07 22:59:00,62.5,61.6,29.95,NNW,338,0.0,0.0,97,0.00,,,0.65,WeatherCatV1.15B25,2013-06-08 02:59:00,
2013-06-07 23:04:00,62.4,61.2,29.95,NNE,12,0.0,2.0,96,0.00,,,0.65,WeatherCatV1.15B25,2013-06-08 03:04:00,
2013-06-07 23:09:00,62.1,60.6,29.95,NNE,12,0.0,1.0,95,0.00,,,0.65,WeatherCatV1.15B25,2013-06-08 03:09:00,
2013-06-07 23:14:00,61.7,60.2,29.96,NNE,12,0.0,1.0,95,0.00,,,0.65,WeatherCatV1.15B25,2013-06-08 03:14:00,
2013-06-07 23:19:00,61.6,60.4,29.96,NNE,12,0.0,0.0,96,0.00,,,0.65,WeatherCatV1.15B25,2013-06-08 03:19:00,
2013-06-07 23:24:00,61.5,60.3,29.96,NNE,12,0.0,1.0,96,0.00,,,0.65,WeatherCatV1.15B25,2013-06-08 03:24:00,
2013-06-07 23:29:00,61.5,60.3,29.96,NNE,12,0.0,0.0,96,0.00,,,0.65,WeatherCatV1.15B25,2013-06-08 03:29:00,
2013-06-07 23:44:00,61.4,60.5,29.97,NNE,12,0.0,0.0,97,0.00,,,0.65,WeatherCatV1.15B25,2013-06-08 03:44:00,
2013-06-07 23:49:00,61.4,60.5,29.97,NNE,12,0.0,0.0,97,0.00,,,0.65,WeatherCatV1.15B25,2013-06-08 03:49:00,
2013-06-07 23:54:00,61.5,60.6,29.97,NNE,12,0.0,0.0,97,0.00,,,0.65,WeatherCatV1.15B25,2013-06-08 03:54:00,
2013-06-07 23:59:00,61.4,60.5,29.97,NNE,12,0.0,0.0,97,0.00,,,0.65,WeatherCatV1.15B25,2013-06-08 03:59:00,